FW5708 Weather Reports


time (UTC)temp
C
wind
direction
speed
KPH
gust
KPH
rain 1hr
cm
rain 24hr
cm
rain mn
cm
humidity
%
barometer
mb
20260504042502 13 228 3.2 4.8 0.00 0.00 0.00 71 999.0
20260504042002 13 270 3.2 3.2 0.00 0.00 0.00 71 998.9
20260504041502 13 217 6.4 8.0 0.00 0.00 0.00 70 998.9
20260504041002 14 233 3.2 4.8 0.00 0.00 0.00 69 998.8
20260504040502 14 256 4.8 6.4 0.00 0.00 0.00 68 999.0
20260504040002 14 286 4.8 6.4 0.00 0.00 0.00 68 998.9
20260504035502 14 263 3.2 4.8 0.00 0.00 0.00 68 998.7
20260504035002 15 267 1.6 3.2 0.00 0.00 0.00 67 998.8
20260504034502 15 251 3.2 6.4 0.00 0.00 0.00 67 998.9
20260504034002 15 262 3.2 4.8 0.00 0.00 0.00 67 998.8
20260504033502 15 247 3.2 3.2 0.00 0.00 0.00 66 998.8
20260504033002 15 240 3.2 4.8 0.00 0.00 0.00 66 999.3
20260504032502 15 251 4.8 6.4 0.00 0.00 0.00 66 999.2
20260504032002 15 251 4.8 4.8 0.00 0.00 0.00 65 999.1
20260504031502 15 267 3.2 4.8 0.00 0.00 0.00 65 999.2
20260504031002 15 269 1.6 3.2 0.00 0.00 0.00 65 999.2
20260504030503 15 252 4.8 6.4 0.00 0.00 0.00 65 999.2
20260504030002 15 264 3.2 4.8 0.00 0.00 0.00 64 999.2
20260504025502 15 267 3.2 4.8 0.00 0.00 0.00 64 999.3
20260504025002 15 263 3.2 4.8 0.00 0.00 0.00 64 999.3
20260504024502 15 264 1.6 3.2 0.00 0.00 0.00 64 999.4
20260504023502 15 237 4.8 6.4 0.00 0.00 0.00 63 999.3
20260504022501 15 251 3.2 6.4 0.00 0.00 0.00 63 999.3
20260504022002 16 270 3.2 4.8 0.00 0.00 0.00 63 999.4
20260504021501 16 270 1.6 3.2 0.00 0.00 0.00 63 999.3
20260504021002 16 267 1.6 3.2 0.00 0.00 0.00 62 999.3
20260504020502 16 262 1.6 3.2 0.00 0.00 0.00 62 999.2
20260504020001 16 268 3.2 3.2 0.00 0.00 0.00 61 999.0
20260504015502 16 256 3.2 4.8 0.00 0.00 0.00 61 998.9
20260504014501 16 254 6.4 6.4 0.00 0.00 0.00 60 999.0
20260504014003 16 263 3.2 4.8 0.00 0.00 0.00 59 998.8
20260504013502 16 273 4.8 6.4 0.00 0.00 0.00 59 999.0
20260504013002 17 255 3.2 4.8 0.00 0.00 0.00 59 998.7
20260504012502 17 235 8.0 8.0 0.00 0.00 0.00 58 998.8
20260504012002 17 260 3.2 4.8 0.00 0.00 0.00 58 998.6
20260504011502 17 243 4.8 4.8 0.00 0.00 0.00 58 998.7
20260504011002 17 263 6.4 8.0 0.00 0.00 0.00 57 998.6
20260504010002 17 262 3.2 4.8 0.00 0.00 0.00 56 998.7
20260504005502 17 275 3.2 4.8 0.00 0.00 0.00 56 998.5
20260504005002 17 267 3.2 4.8 0.00 0.00 0.00 55 998.7
20260504004002 18 263 3.2 4.8 0.00 0.00 0.00 54 998.5
20260504003502 18 277 3.2 4.8 0.00 0.00 0.00 54 998.6
20260504003002 18 261 4.8 6.4 0.00 0.00 0.00 53 998.6
20260504002001 19 270 6.4 9.7 0.00 0.00 0.00 51 998.6
20260504001502 19 239 3.2 6.4 0.00 0.00 0.00 52 998.6
20260504001002 19 219 3.2 6.4 0.00 0.00 0.00 51 998.7
20260504000501 20 280 4.8 4.8 0.00 0.00 0.00 50 998.8
20260504000003 20 269 8.0 9.7 0.00 0.00 0.00 49 998.9
20260503235501 20 273 4.8 6.4 0.00 0.00 0.00 49 998.6
20260503235003 20 275 4.8 6.4 0.00 0.00 0.00 48 998.6
20260503234502 20 263 6.4 6.4 0.00 0.00 0.00 48 998.6
20260503233002 20 274 6.4 8.0 0.00 0.00 0.00 47 998.7
20260503232502 20 244 4.8 6.4 0.00 0.00 0.00 48 998.7
20260503232002 20 255 6.4 8.0 0.00 0.00 0.00 47 998.8
20260503231502 20 221 9.7 16.1 0.00 0.00 0.00 46 998.7
20260503231002 20 254 6.4 8.0 0.00 0.00 0.00 45 998.7
20260503230501 20 257 8.0 9.7 0.00 0.00 0.00 46 998.6
20260503230003 21 262 9.7 14.5 0.00 0.00 0.00 45 998.5
20260503225501 21 263 4.8 6.4 0.00 0.00 0.00 47 998.9
20260503225002 20 269 9.7 14.5 0.00 0.00 0.00 47 998.9
20260503224502 20 275 11.3 17.7 0.00 0.00 0.00 46 998.8
20260503224002 20 267 11.3 16.1 0.00 0.00 0.00 48 998.8
20260503223502 20 214 9.7 16.1 0.00 0.00 0.00 47 999.0
20260503223002 20 240 6.4 8.0 0.00 0.00 0.00 48 999.1
20260503222502 20 280 9.7 16.1 0.00 0.00 0.00 47 999.3
20260503222001 20 282 4.8 6.4 0.00 0.00 0.00 47 998.9
20260503221501 20 222 9.7 14.5 0.00 0.00 0.00 46 998.9
20260503221003 20 256 9.7 16.1 0.00 0.00 0.00 46 999.3
20260503220002 20 274 4.8 6.4 0.00 0.00 0.00 47 999.4
20260503215502 20 293 8.0 9.7 0.00 0.00 0.00 46 999.2
20260503215002 20 182 11.3 16.1 0.00 0.00 0.00 46 999.4
20260503214502 19 247 6.4 6.4 0.00 0.00 0.00 48 999.5
20260503214003 20 205 4.8 8.0 0.00 0.00 0.00 48 999.5
20260503213502 19 258 6.4 9.7 0.00 0.00 0.00 47 999.5
20260503213002 18 306 4.8 6.4 0.00 0.00 0.00 48 999.6
20260503212502 18 254 14.5 19.3 0.00 0.00 0.00 48 999.8
20260503211501 19 244 14.5 20.9 0.00 0.00 0.00 46 999.7
20260503211002 18 268 8.0 11.3 0.00 0.00 0.00 49 1000.0
20260503210502 18 224 16.1 20.9 0.00 0.00 0.00 46 1000.0
20260503210002 19 246 12.9 17.7 0.00 0.00 0.00 46 1000.2
20260503205502 19 270 6.4 9.7 0.00 0.00 0.00 48 1000.2
20260503205003 19 261 9.7 11.3 0.00 0.00 0.00 46 1000.5
20260503204502 19 220 12.9 19.3 0.00 0.00 0.00 45 1000.4
20260503204002 19 230 9.7 14.5 0.00 0.00 0.00 45 1000.4
20260503203001 17 239 9.7 14.5 0.00 0.00 0.00 46 1000.8
20260503202501 17 226 14.5 22.5 0.00 0.00 0.00 47 1000.9
20260503202002 18 253 8.0 14.5 0.00 0.00 0.00 46 1001.0
20260503201502 18 256 8.0 9.7 0.00 0.00 0.00 45 1001.1
20260503200502 18 245 12.9 14.5 0.00 0.00 0.00 47 1001.1
20260503200002 18 247 12.9 20.9 0.00 0.00 0.00 47 1001.2
20260503195502 17 248 11.3 16.1 0.00 0.00 0.00 48 1001.6
20260503195002 17 233 4.8 8.0 0.00 0.00 0.00 50 1001.2
20260503194502 17 276 9.7 16.1 0.00 0.00 0.00 50 1001.4
20260503194002 17 223 9.7 11.3 0.00 0.00 0.00 53 1001.3
20260503193501 17 208 20.9 24.1 0.00 0.00 0.00 52 1001.5
20260503193002 17 213 9.7 17.7 0.00 0.00 0.00 55 1001.4
20260503192502 17 243 8.0 9.7 0.00 0.00 0.00 57 1001.4
20260503192002 16 253 8.0 9.7 0.00 0.00 0.00 58 1001.6
20260503191501 16 244 14.5 20.9 0.00 0.00 0.00 60 1001.8
20260503191002 16 274 11.3 17.7 0.00 0.00 0.00 61 1001.8
20260503190502 15 254 6.4 11.3 0.00 0.00 0.00 60 1001.7
20260503190002 15 218 22.5 30.6 0.00 0.00 0.00 59 1001.8
20260503185501 15 273 16.1 20.9 0.00 0.00 0.00 61 1001.9
20260503185002 15 259 6.4 8.0 0.00 0.00 0.00 62 1002.2
20260503184502 15 255 14.5 19.3 0.00 0.00 0.00 62 1002.3
20260503183502 15 284 3.2 4.8 0.00 0.00 0.00 65 1002.4
20260503183002 15 271 1.6 3.2 0.00 0.00 0.00 66 1002.8
20260503182502 14 243 4.8 8.0 0.00 0.00 0.00 66 1002.8
20260503182002 13 249 11.3 17.7 0.00 0.00 0.00 66 1002.6
20260503181502 13 252 9.7 16.1 0.00 0.00 0.00 66 1002.8
20260503181002 13 224 6.4 9.7 0.00 0.00 0.00 67 1003.0
20260503180501 13 215 9.7 11.3 0.00 0.00 0.00 67 1003.1
20260503175002 12 254 3.2 6.4 0.00 0.00 0.00 72 1003.3
20260503174502 12 270 1.6 4.8 0.00 0.00 0.00 73 1003.6
20260503174002 12 260 6.4 14.5 0.00 0.00 0.00 74 1003.7
20260503173501 11 265 14.5 19.3 0.00 0.00 0.00 75 1004.4
20260503173001 11 239 3.2 8.0 0.00 0.00 0.00 79 1004.5
20260503172502 11 243 3.2 6.4 0.00 0.00 0.00 80 1004.5
20260503172002 11 245 6.4 8.0 0.00 0.00 0.00 81 1004.6
20260503171502 11 271 6.4 8.0 0.00 0.00 0.00 83 1004.9
20260503150501 12 227 6.4 8.0 0.00 0.00 0.00 64 1006.4
20260503130502 9 244 8.0 9.7 0.00 0.00 0.00 67 1007.1
20260503110501 7 222 8.0 11.3 0.00 0.00 0.00 69 1006.7
20260503090502 6 262 3.2 3.2 0.00 0.00 0.00 68 1007.4
20260503081502 6 267 3.2 6.4 0.00 0.00 0.00 67 1007.6
20260503081001 6 265 3.2 4.8 0.00 0.00 0.00 67 1007.6
20260503080502 6 273 3.2 4.8 0.00 0.00 0.00 66 1007.7
20260503072501 6 262 3.2 4.8 0.00 0.00 0.00 67 1007.9
20260503072002 6 271 1.6 3.2 0.00 0.00 0.00 67 1008.0
20260503071502 6 264 3.2 4.8 0.00 0.00 0.00 68 1007.7
20260503071001 6 269 1.6 3.2 0.00 0.00 0.00 68 1007.7
20260503054002 6 267 1.6 3.2 0.00 0.00 0.00 65 1008.7
20260503053501 6 267 0.0 0.0 0.00 0.00 0.00 65 1008.6
20260503053001 6 265 1.6 3.2 0.00 0.00 0.00 66 1008.5
20260503052502 6 264 1.6 3.2 0.00 0.00 0.00 68 1008.5
20260503052002 6 265 1.6 3.2 0.00 0.00 0.00 68 1008.8
20260503051502 6 265 0.0 0.0 0.00 0.00 0.00 68 1008.8
20260503051002 6 265 0.0 0.0 0.00 0.00 0.00 68 1008.5
20260503050502 6 265 0.0 0.0 0.00 0.00 0.00 69 1008.6
20260503045502 5 265 1.6 3.2 0.00 0.00 0.00 71 1008.7
20260503045002 5 266 0.0 0.0 0.00 0.00 0.00 72 1008.7
20260503044003 5 266 0.0 0.0 0.00 0.00 0.00 71 1008.8
20260503043501 5 266 0.0 0.0 0.00 0.00 0.00 71 1008.8